Skip Page Navigation
NASA JPL Caltech
NASA Logo - Jet Propulsion Laboratory + View the NASA Portal
+ Center for Near-Earth Object Studies
JPL Home Earth Solar System Stars & Galaxies Technology
JPL Solar System Dynamics
BODIES ORBITS EPHEMERIDES TOOLS PHYSICAL DATA DISCOVERY FAQ SITE MAP
IMPORTANT: The SSD Announcement email list is now available. Major changes are coming in the near future, including possible hostname and/or URL changes. To be notified of such changes, subscribe to this email list.

Please visit this page for more details.


JPL Small-Body Database Browser
Search: [ help ]  
523734 (2014 QV441)
Classification: TransNeptunian Object          SPK-ID: 2523734
Ephemeris | Orbit Diagram | Orbital Elements | Mission Design | Physical Parameters | Discovery Circumstances ]

[ show orbit diagram ]
Orbital Elements at Epoch 2458600.5 (2019-Apr-27.0) TDB
Reference: JPL 6 (heliocentric ecliptic J2000)
 Element Value Uncertainty (1-sigma)   Units 
e .4040428450765756 1.349e-05  
a 31.54126361749953 0.00083631 au
q 18.79724172817474 8.1105e-05 au
i 26.48292567930386 3.1224e-05 deg
node 159.1631462948534 3.5909e-05 deg
peri 234.2369732484943 0.00084125 deg
M 359.2229915565088 0.00033879 deg
tp 2458740.149793088829
(2019-Sep-13.64979309)
0.056641 TDB
period 64701.90373490978
177.14
2.5733
0.007045
d
yr
n .005563978480060745 2.2129e-07 deg/d
Q 44.28528550682433 0.0011742 au
  Orbit Determination Parameters
   # obs. used (total)      103  
   data-arc span      2694 days (7.38 yr)  
   first obs. used      2010-08-31  
   last obs. used      2018-01-15  
   planetary ephem.      DE431  
   SB-pert. ephem.      SB431-N16  
   condition code      2  
   norm. resid. RMS      .6123  
   source      ORB  
   producer      Otto Matic  
   solution date      2018-Oct-04 12:52:47  

Additional Information
 Earth MOID = 17.872 au 
 Jupiter MOID = 14.1979 au 
 T_jup = 4.197 
[ show covariance matrix ]

Ephemeris | Orbit Diagram | Orbital Elements | Mission Design | Physical Parameters | Discovery Circumstances ]

Physical Parameter Table
Parameter Symbol Value Units Sigma Reference Notes
absolute magnitude H 8.7   n/a MPO450807  

523734 (2014 QV441)          Discovered 2010-Aug-31 by Pan-STARRS 1 at Haleakala
Reference: Last Updated: 2018-10-01
Ephemeris | Orbit Diagram | Orbital Elements | Mission Design | Physical Parameters | Discovery Circumstances ]
ABOUT SSD CREDITS/AWARDS PRIVACY/COPYRIGHT GLOSSARY LINKS
FirstGov
(server date/time)  
NASA Home Page
Site Manager:   Ryan S. Park
Webmaster  Alan B. Chamberlin